When you browse on this site, cookies collect data to enhance your experience and personalize the content and advertising you see.
Visit our Privacy Policy to learn more. By continuing to use the site, you agree to this use of cookies and data.
  • In Hungary
  • List of Countries
  • For 7 days
  • Water Temperature
  • Satellite Maps
  • Weather Map
  • News
  • Weather Widgets
  • user-avatar
    Login

    Hourly Weather Kirundo

    Today, 24 February, Sunday

    Time Temperature Precipitation Wind Pressure Humidity
    00:00 +19°C° 0 mm 1 mps 642 mmHg 79%
    01:00 +18°C° 0 mm 1 mps 642 mmHg 80%
    02:00 +18°C° 0 mm 1 mps 642 mmHg 81%
    03:00 +16°C° 0 mm 0 mps 642 mmHg 81%
    04:00 +16°C° 0 mm 0 mps 642 mmHg 81%
    05:00 +15°C° 0 mm 0 mps 641 mmHg 82%
    06:00 +17°C° 0.3 mm 0 mps 642 mmHg 77%
    07:00 +18°C° 0.3 mm 0 mps 643 mmHg 73%
    08:00 +19°C° 0.3 mm 0 mps 644 mmHg 69%
    09:00 +22°C° 0.3 mm 0 mps 644 mmHg 63%
    10:00 +26°C° 0.3 mm 1 mps 645 mmHg 58%
    11:00 +29°C° 0.3 mm 1 mps 646 mmHg 52%
    12:00 +28°C° 0.9 mm 1 mps 645 mmHg 55%
    13:00 +27°C° 0.9 mm 2 mps 644 mmHg 59%
    14:00 +26°C° 0.9 mm 2 mps 643 mmHg 62%
    15:00 +25°C° 1.7 mm 2 mps 643 mmHg 69%
    16:00 +24°C° 1.7 mm 2 mps 642 mmHg 76%
    17:00 +23°C° 1.7 mm 1 mps 642 mmHg 82%
    18:00 +21°C° 1 mm 1 mps 642 mmHg 85%
    19:00 +20°C° 1 mm 1 mps 642 mmHg 88%
    20:00 +17°C° 1 mm 0 mps 642 mmHg 90%
    21:00 +17°C° 0.2 mm 0 mps 642 mmHg 91%
    22:00 +17°C° 0.2 mm 0 mps 642 mmHg 92%
    23:00 +16°C° 0.2 mm 0 mps 643 mmHg 93%

    Tomorrow, 25 February, Monday

    Time Temperature Precipitation Wind Pressure Humidity
    00:00 +16°C° 0 mm 0 mps 642 mmHg 93%
    01:00 +16°C° 0 mm 0 mps 642 mmHg 94%
    02:00 +15°C° 0 mm 0 mps 641 mmHg 95%
    03:00 +15°C° 0 mm 0 mps 641 mmHg 95%
    04:00 +15°C° 0 mm 0 mps 641 mmHg 95%
    05:00 +15°C° 0 mm 0 mps 641 mmHg 95%
    06:00 +16°C° 0.4 mm 0 mps 642 mmHg 92%
    07:00 +17°C° 0.4 mm 0 mps 643 mmHg 88%
    08:00 +19°C° 0.4 mm 0 mps 644 mmHg 85%
    09:00 +21°C° 0.5 mm 0 mps 644 mmHg 76%
    10:00 +24°C° 0.5 mm 0 mps 644 mmHg 68%
    11:00 +28°C° 0.5 mm 1 mps 645 mmHg 59%
    12:00 +28°C° 0.5 mm 1 mps 644 mmHg 57%
    13:00 +28°C° 0.5 mm 1 mps 643 mmHg 56%
    14:00 +28°C° 0.5 mm 2 mps 643 mmHg 54%
    15:00 +28°C° 0.3 mm 2 mps 642 mmHg 56%
    16:00 +27°C° 0.3 mm 2 mps 642 mmHg 58%
    17:00 +27°C° 0.3 mm 2 mps 642 mmHg 60%
    18:00 +25°C° 0.2 mm 1 mps 642 mmHg 67%
    19:00 +22°C° 0.2 mm 1 mps 642 mmHg 74%
    20:00 +20°C° 0.2 mm 1 mps 642 mmHg 82%
    21:00 +20°C° 0.1 mm 1 mps 642 mmHg 84%
    22:00 +19°C° 0.1 mm 1 mps 642 mmHg 87%
    23:00 +19°C° 0.1 mm 1 mps 642 mmHg 89%

    Day after tomorrow, 26 February, Tuesday

    Time Temperature Precipitation Wind Pressure Humidity
    00:00 +18°C° 0 mm 1 mps 642 mmHg 90%
    01:00 +16°C° 0 mm 0 mps 641 mmHg 90%
    02:00 +16°C° 0 mm 0 mps 641 mmHg 91%
    03:00 +16°C° 0 mm 0 mps 641 mmHg 91%
    04:00 +16°C° 0 mm 0 mps 641 mmHg 92%
    05:00 +15°C° 0 mm 0 mps 641 mmHg 92%
    06:00 +17°C° 0 mm 0 mps 642 mmHg 87%
    07:00 +19°C° 0 mm 0 mps 643 mmHg 81%
    08:00 +20°C° 0 mm 0 mps 644 mmHg 76%
    09:00 +23°C° 0.1 mm 0 mps 644 mmHg 68%
    10:00 +27°C° 0.1 mm 1 mps 645 mmHg 59%
    11:00 +30°C° 0.1 mm 1 mps 645 mmHg 51%
    12:00 +30°C° 0.4 mm 2 mps 644 mmHg 50%
    13:00 +30°C° 0.4 mm 2 mps 643 mmHg 49%
    14:00 +30°C° 0.4 mm 2 mps 643 mmHg 48%
    15:00 +29°C° 0.4 mm 2 mps 642 mmHg 53%
    16:00 +28°C° 0.4 mm 2 mps 642 mmHg 58%
    17:00 +27°C° 0.4 mm 2 mps 641 mmHg 63%
    18:00 +25°C° 0.2 mm 1 mps 641 mmHg 69%
    19:00 +23°C° 0.2 mm 1 mps 641 mmHg 74%
    20:00 +22°C° 0.2 mm 1 mps 642 mmHg 80%
    21:00 +21°C° 0 mm 1 mps 642 mmHg 81%
    22:00 +21°C° 0 mm 1 mps 642 mmHg 83%
    23:00 +20°C° 0 mm 1 mps 642 mmHg 85%

    27 February, Wednesday

    Time Temperature Precipitation Wind Pressure Humidity
    00:00 +20°C° 0 mm 1 mps 641 mmHg 87%
    01:00 +17°C° 0 mm 0 mps 641 mmHg 89%
    02:00 +16°C° 0 mm 0 mps 640 mmHg 92%
    03:00 +16°C° 0.2 mm 0 mps 640 mmHg 92%
    04:00 +16°C° 0.2 mm 0 mps 640 mmHg 93%
    05:00 +16°C° 0.2 mm 0 mps 641 mmHg 93%
    06:00 +18°C° 0.2 mm 0 mps 642 mmHg 86%
    07:00 +20°C° 0.2 mm 0 mps 643 mmHg 80%
    08:00 +21°C° 0.2 mm 0 mps 644 mmHg 73%
    09:00 +25°C° 0.4 mm 1 mps 644 mmHg 64%
    10:00 +27°C° 0.4 mm 1 mps 644 mmHg 55%
    11:00 +29°C° 0.4 mm 2 mps 645 mmHg 46%
    12:00 +30°C° 0 mm 2 mps 644 mmHg 44%
    13:00 +31°C° 0 mm 2 mps 643 mmHg 42%
    14:00 +31°C° 0 mm 2 mps 643 mmHg 40%
    15:00 +30°C° 0.1 mm 2 mps 642 mmHg 46%
    16:00 +29°C° 0.1 mm 2 mps 641 mmHg 52%
    17:00 +28°C° 0.1 mm 2 mps 641 mmHg 57%
    18:00 +26°C° 0 mm 2 mps 641 mmHg 65%
    19:00 +24°C° 0 mm 2 mps 641 mmHg 72%
    20:00 +22°C° 0 mm 1 mps 641 mmHg 79%
    21:00 +21°C° 0 mm 1 mps 641 mmHg 82%
    22:00 +20°C° 0 mm 1 mps 641 mmHg 84%
    23:00 +20°C° 0 mm 1 mps 641 mmHg 86%

    28 February, Thursday

    Time Temperature Precipitation Wind Pressure Humidity
    00:00 +19°C° 0 mm 1 mps 641 mmHg 88%
    01:00 +19°C° 0 mm 1 mps 641 mmHg 90%
    02:00 +16°C° 0 mm 0 mps 640 mmHg 92%
    03:00 +16°C° 0 mm 0 mps 640 mmHg 93%
    04:00 +16°C° 0 mm 0 mps 641 mmHg 93%
    05:00 +16°C° 0 mm 0 mps 641 mmHg 94%
    06:00 +18°C° 0.2 mm 0 mps 642 mmHg 86%
    07:00 +20°C° 0.2 mm 0 mps 643 mmHg 78%
    08:00 +22°C° 0.2 mm 0 mps 644 mmHg 70%
    09:00 +26°C° 0.5 mm 1 mps 644 mmHg 60%
    10:00 +28°C° 0.5 mm 1 mps 644 mmHg 50%
    11:00 +30°C° 0.5 mm 2 mps 645 mmHg 40%
    12:00 +31°C° 0 mm 2 mps 644 mmHg 39%
    13:00 +31°C° 0 mm 2 mps 643 mmHg 37%
    14:00 +32°C° 0 mm 2 mps 642 mmHg 35%
    15:00 +31°C° 0 mm 2 mps 642 mmHg 39%
    16:00 +30°C° 0 mm 2 mps 642 mmHg 42%
    17:00 +30°C° 0 mm 2 mps 641 mmHg 46%
    18:00 +27°C° 0 mm 2 mps 641 mmHg 53%
    19:00 +25°C° 0 mm 1 mps 641 mmHg 60%
    20:00 +22°C° 0 mm 1 mps 642 mmHg 67%
    21:00 +21°C° 0.5 mm 1 mps 642 mmHg 73%
    22:00 +20°C° 0.5 mm 1 mps 642 mmHg 79%
    23:00 +19°C° 0.5 mm 1 mps 642 mmHg 85%

    1 March, Friday

    Time Temperature Precipitation Wind Pressure Humidity
    00:00 +19°C° 0.4 mm 1 mps 641 mmHg 86%
    01:00 +19°C° 0.4 mm 1 mps 641 mmHg 87%
    02:00 +17°C° 0.4 mm 0 mps 641 mmHg 87%
    03:00 +17°C° 0.1 mm 0 mps 641 mmHg 87%
    04:00 +16°C° 0.1 mm 0 mps 641 mmHg 87%
    05:00 +16°C° 0.1 mm 0 mps 641 mmHg 86%
    06:00 +17°C° 0 mm 0 mps 642 mmHg 82%
    07:00 +18°C° 0 mm 0 mps 643 mmHg 78%
    08:00 +20°C° 0 mm 0 mps 644 mmHg 74%
    09:00 +24°C° 0.2 mm 1 mps 644 mmHg 66%
    10:00 +26°C° 0.2 mm 1 mps 644 mmHg 57%
    11:00 +29°C° 0.2 mm 2 mps 644 mmHg 49%
    12:00 +30°C° 0.1 mm 2 mps 644 mmHg 45%
    13:00 +30°C° 0.1 mm 2 mps 643 mmHg 42%
    14:00 +31°C° 0.1 mm 2 mps 642 mmHg 38%
    15:00 +30°C° 0 mm 2 mps 642 mmHg 43%
    16:00 +29°C° 0 mm 2 mps 642 mmHg 47%
    17:00 +28°C° 0 mm 3 mps 641 mmHg 51%
    18:00 +26°C° 0 mm 2 mps 641 mmHg 59%
    19:00 +24°C° 0 mm 2 mps 641 mmHg 67%
    20:00 +22°C° 0 mm 1 mps 641 mmHg 76%
    21:00 +21°C° 0.1 mm 1 mps 641 mmHg 79%
    22:00 +20°C° 0.1 mm 1 mps 641 mmHg 82%
    23:00 +19°C° 0.1 mm 1 mps 641 mmHg 85%
    Show more